Content
SEND FEEDBACK

Daily
Averages
Monthly
Summary
United States of America

PATERSON, NEW JERSEY


Home > North America > United States > New Jersey
Elevation: 233 feet     Latitude: 40 53N     Longitude: 074 14W

WEATHER
 
SELECT A DAY
Number of Records: 186,575;   Date Range: 1/1/95 - 7/29/14
 
SHARE

PRINT THIS DATA

[ ← Previous Day ]
WEATHER ALMANAC - JANUARY 31, 2013
[ Next Day → ]
[ °C ]   °F
Weather ElementAverageHighLow
Temperature47.6 °F63 °F (2:53 am)28.9 °F (10:53 pm)
Dewpoint33.6 °F57.9 °F (12:53 am)5 °F (11:53 pm)
Humidity61.8 %94 % (3:55 am)31 % (3:53 pm)
Barometer29.38 in29.81 in (11:53 pm)29.06 in (6:07 am)
Wind Speed15.2 mph25.3 mph (10:53 am)
Wind Gust49.5 mph (2:53 am)
Weather ElementAverage
Visibility7.8 mi
Wind DirectionWSW (248.4 °)

Weather ElementTotal
Precipitation1.49 in
Heating Degree Days19.1 (Base 65)
Averaged from 32 records on January 31, 2013
WEATHER CONDITIONS BREAKOUT
WIND DIRECTION BREAKOUT
WEATHER BY HOUR - JANUARY 31, 2013
[ °C ]   °F
Local TimeTemperatureDewpointHumidityBarometerVisibilityWind DirectionWind SpeedGust SpeedPrecipitationEventsConditions
12:23 AM60.8 °F57.2 °F88 %29.31 in4.0 miSSW (200°)9.2 mph0.05 inRainRain
12:53 AM60.1 °F57.9 °F93 %29.30 in4.0 miSSW (200°)13.8 mph21.9 mph0.14 inRainRain
1:10 AM60.8 °F57.2 °F88 %29.25 in5.0 miSSW (210°)12.7 mph26.5 mph0.04 inRainLight Rain
1:53 AM62.1 °F57.9 °F86 %29.18 in9.0 miSouth (180°)18.4 mph32.2 mph0.09 inRainLight Rain
2:53 AM63.0 °F57.9 °F84 %29.11 in5.0 miSouth (190°)24.2 mph49.5 mph0.05 inRainLight Rain
3:53 AM60.1 °F57.9 °F93 %29.14 in0.8 miWSW (250°)18.4 mph39.1 mph0.50 inRainHeavy Rain
3:55 AM59.0 °F57.2 °F94 %29.12 in0.8 miSW (230°)16.1 mph39.1 mph0.02 inRainHeavy Rain
4:03 AM60.8 °F57.2 °F88 %29.12 in2.0 miSW (230°)11.5 mph32.2 mph0.05 inRainRain
4:05 AM60.8 °F57.2 °F88 %29.12 in4.0 miWSW (240°)12.7 mph25.3 mph0.05 inRainRain
4:53 AM59.0 °F54.0 °F83 %29.12 in10.0 miSW (230°)12.7 mph20.7 mph0.10 inRainLight Rain
5:53 AM57.0 °F54.0 °F89 %29.07 in10.0 miVariable5.8 mph0.03 inRainLight Rain
6:07 AM57.2 °F53.6 °F88 %29.06 in2.0 miWest (280°)11.5 mph18.4 mph0.07 inRainRain
6:16 AM55.4 °F53.6 °F94 %29.08 in3.0 miSW (220°)8.1 mph0.08 inRainLight Rain
6:41 AM51.8 °F44.6 °F76 %29.14 in10.0 miWNW (290°)19.6 mph36.8 mph0.11 inOvercast
6:53 AM51.1 °F37.9 °F61 %29.18 in10.0 miWest (280°)18.4 mph36.8 mph0.11 inRainLight Rain
7:53 AM46.9 °F28.0 °F48 %29.23 in10.0 miWest (280°)16.1 mph39.1 mph0.00 inOvercast
8:53 AM44.1 °F25.0 °F47 %29.33 in10.0 miWest (280°)21.9 mph40.3 mphScattered Clouds
9:53 AM43.0 °F21.9 °F43 %29.39 in10.0 miWest (280°)12.7 mph34.5 mphMostly Cloudy
10:53 AM42.1 °F19.9 °F41 %29.42 in10.0 miWNW (290°)25.3 mph34.5 mphScattered Clouds
11:53 AM43.0 °F17.1 °F35 %29.43 in10.0 miWNW (290°)23.0 mph40.3 mphPartly Cloudy
12:53 PM44.1 °F18.0 °F35 %29.45 in10.0 miWest (280°)15.0 mph31.1 mphScattered Clouds
1:53 PM43.0 °F17.1 °F35 %29.48 in10.0 miWNW (290°)20.7 mph33.4 mphClear
2:53 PM42.1 °F17.1 °F37 %29.52 in10.0 miWSW (250°)16.1 mph29.9 mphOvercast
3:53 PM41.0 °F12.0 °F31 %29.57 in10.0 miWest (280°)18.4 mph31.1 mphMostly Cloudy
4:53 PM36.0 °F15.1 °F43 %29.62 in10.0 miWest (280°)21.9 mph32.2 mphScattered Clouds
5:53 PM34.0 °F12.0 °F40 %29.68 in10.0 miWest (280°)18.4 mph29.9 mphPartly Cloudy
6:53 PM33.1 °F12.0 °F42 %29.71 in10.0 miWest (260°)9.2 mph18.4 mphPartly Cloudy
7:53 PM32.0 °F14.0 °F48 %29.74 in10.0 miWest (280°)10.4 mph19.6 mphPartly Cloudy
8:53 PM30.9 °F10.9 °F43 %29.76 in10.0 miWest (280°)10.4 mph29.9 mphClear
9:53 PM30.0 °F8.1 °F40 %29.78 in10.0 miWest (270°)12.7 mph34.5 mphClear
10:53 PM28.9 °F7.0 °F40 %29.80 in10.0 miWest (280°)11.5 mph21.9 mphClear
11:53 PM28.9 °F5.0 °F36 %29.81 in10.0 miWest (270°)9.2 mph21.9 mphPartly Cloudy
Hourly data recorded from KCDW, located miles away from Paterson, New Jersey







STORIES FROM OUR PARTNERS